Regional Weather Roundup
Issued by NWS

Home | Current Version | Previous Version | Text Only | Print | Product List | Glossary On
Versions: 1 2 3 4 5 6 7 8 9 10 11 12 13 14 15 16 17 18 19 20 21 22 23 24 25 26 27 28 29 30 31 32 33 34 35 36 37 38 39 40 41 42 43 44 45 46 47 48 49 50
000
ASUS44 KEWX 050003
RWRTX
SOUTH TEXAS REGIONAL WEATHER ROUNDUP
NATIONAL WEATHER SERVICE AUSTIN/SAN ANTONIO TX
700 PM CDT MON MAY 04 2015

NOTE: "FAIR" INDICATED FEW OR NO CLOUDS BELOW 12,000 FEET WITH NO
SIGNIFICANT WEATHER AND/OR OBSTRUCTIONS TO VISIBILITY.

* - THESE STATIONS ARE NOT NWS OR FAA STATIONS...AND ARE NOT SUBJECT
    TO NWS AND FAA QUALITY CONTROL.

TXZ171-172-183>190-050100-
TEXAS HILL COUNTRY AND EDWARDS PLATEAU

CITY           SKY/WX    TMP DP  RH WIND       PRES   REMARKS
JUNCTION       PTSUNNY   76  63  64 SE13G20   29.95F
6HR MIN TEMP:  69; 6HR MAX TEMP:  81; 6HR PCP:  0.23;

*LLANO         MOSUNNY   79  61  53 S9G18     29.99S
BURNET         PTSUNNY   77  59  53 SE13G21   30.00S
6HR MIN TEMP:  77; 6HR MAX TEMP:  83;

*HORSESHOE BAY MOSUNNY   78  61  54 SE8G18    29.98R
6HR MIN TEMP:  78; 6HR MAX TEMP:  84;

*KERRVILLE     CLOUDY    76  64  66 SE15G23   29.98S
*FREDERICKSBRG PTSUNNY   75  59  57 SE14G21   29.99S
*ROCKSPRINGS   PTSUNNY   73  63  68 SE15G23   29.98F
*BOERNE STAGE  PTSUNNY   75  59  57 SE9G18    30.00S
*CASTROVILLE   PTSUNNY   79  58  48 SE17G26   29.97S
HONDO          MOSUNNY   79  63  57 SE21G29   29.96F
6HR MIN TEMP:  76; 6HR MAX TEMP:  83; 6HR PCP: TRACE;

*UVALDE        PTSUNNY   77  64  63 SE15G21   29.93F
DEL RIO        CLOUDY    77  66  68 SE14G21   29.88F
6HR MIN TEMP:  76; 6HR MAX TEMP:  83; 6HR PCP:  0.01;

LAUGHLIN AFB   NOT AVBL
CARRIZO SPRGS  CLOUDY    79  63  57 SE15G25   29.90S
$$

TXZ173-191>194-202-209-217>225-228-050100-
CENTRAL AND SOUTH CENTRAL TEXAS

CITY           SKY/WX    TMP DP  RH WIND       PRES   REMARKS
GEORGETOWN     PTSUNNY   81  59  47 E10G17    29.98S
AUSTIN/BERGSTM PTSUNNY   79  60  52 SE15      29.98R
6HR MIN TEMP:  79; 6HR MAX TEMP:  84;

AUSTIN/MABRY   MOSUNNY   80  59  48 SE13G22   29.99S
6HR MIN TEMP:  79; 6HR MAX TEMP:  84;

*AUSTIN/EXEC   MOSUNNY   79  61  53 SE15G21   29.99S
*LAGO VISTA    CLOUDY    78  59  52 SE10G20   30.00S
6HR MIN TEMP:  78; 6HR MAX TEMP:  85;

SAN MARCOS     CLOUDY    79  57  47 S15       29.99S
6HR MIN TEMP:  79; 6HR MAX TEMP:  84;

NEW BRAUNFELS  PTSUNNY   79  60  52 SE20      29.97R
6HR MIN TEMP:  79; 6HR MAX TEMP:  84; 6HR PCP: TRACE;

RANDOLPH AFB   NOT AVBL
PT SAN ANTONIO NOT AVBL
SAN ANTONIO    PTSUNNY   79  60  52 SE20      29.98S
6HR MIN TEMP:  77; 6HR MAX TEMP:  83; 6HR PCP: TRACE;

STINSON FIELD  PTSUNNY   79  61  53 SE13G28   29.96R
6HR MIN TEMP:  79; 6HR MAX TEMP:  84;

*PLEASANTON    SUNNY     80  61  51 SE16G23   29.96S
6HR MIN TEMP:  80; 6HR MAX TEMP:  84;

*LA GRANGE     SUNNY     81  62  51 SE8G17    29.98S
*GIDDINGS      SUNNY     79  60  51 SE9G16    30.03F
6HR MIN TEMP:  78; 6HR MAX TEMP:  83;

*GONZALES      SUNNY     81  61  49 SE15G21   29.98S
$$

TXZ163>164-176>182-195>201-210>213-226-227-235-050100-
SOUTHEAST TEXAS

CITY           SKY/WX    TMP DP  RH WIND       PRES   REMARKS
COLLEGE STN    SUNNY     81  55  40 SE14      30.01F
6HR MIN TEMP:  79; 6HR MAX TEMP:  84;

*BRYAN         SUNNY     80  57  46 SE9       30.03S
*CALDWELL      SUNNY     81  57  44 E8G17     30.04S
*CROCKETT      NOT AVBL
*BRENHAM       SUNNY     82  56  39 E12       30.02S
HUNTSVILLE     SUNNY     81  52  36 VRB3      30.03F
6HR MIN TEMP:  80; 6HR MAX TEMP:  84;

CONROE         SUNNY     79  56  45 SE13      30.04F
6HR MIN TEMP:  79; 6HR MAX TEMP:  84;

HOUSTON BUSH   MOSUNNY   77  59  53 SE17      30.04F
6HR MIN TEMP:  77; 6HR MAX TEMP:  84;

HOUSTON HOBBY  MOSUNNY   77  59  53 SE13      30.04F
6HR MIN TEMP:  77; 6HR MAX TEMP:  82;

*HOUSTON SW AP MOSUNNY   84  68  57 E10       30.05F
PEARLAND       MOSUNNY   78  60  53 SE12      30.06F
6HR MIN TEMP:  78; 6HR MAX TEMP:  84;

HOUSTON HOOKS  SUNNY     78  57  48 SE12      30.04S
6HR MIN TEMP:  78; 6HR MAX TEMP:  84;

ELLINGTON FLD  MOSUNNY   75  63  64 E14       30.06F
SUGAR LAND     MOSUNNY   78  58  49 SE13      30.03F
6HR MIN TEMP:  78; 6HR MAX TEMP:  84;

*HOUSTON EXEC  SUNNY     77  55  47 SE10      30.04S
*CLEVELAND MUN MOSUNNY   80  58  47 S6        30.05F
*WHARTON       SUNNY     78  57  48 SE15      30.03S
*COLUMBUS      FAIR      79  61  53 SE8       30.01S
$$

TXZ214>216-236>238-050100-
THE UPPER TEXAS COAST

CITY           SKY/WX    TMP DP  RH WIND       PRES   REMARKS
*ORANGE        SUNNY     78  54  42 SE9       30.08S
6HR MIN TEMP:  78; 6HR MAX TEMP:  82;

PORT ARTHUR    MOSUNNY   78  57  48 SE9       30.06S
6HR MIN TEMP:  78; 6HR MAX TEMP:  84;

GALVESTON      SUNNY     76  63  64 E14       30.06F
6HR MIN TEMP:  76; 6HR MAX TEMP:  80;

ANGLETON       SUNNY     74  63  68 SE13      30.04F
6HR MIN TEMP:  74; 6HR MAX TEMP:  81;

*BAY CITY      PTSUNNY   78  64  62 E13       30.04R
PALACIOS       LGT RAIN  77  65  66 SE17      30.02F
6HR MIN TEMP:  77; 6HR MAX TEMP:  83; 6HR PCP: TRACE;

$$

TXZ229>234-239>247-050100-
TEXAS COASTAL BEND AND RIO GRANDE PLAINS

CITY           SKY/WX    TMP DP  RH WIND       PRES   REMARKS
VICTORIA       SUNNY     77  64  64 SE18G25   30.01S
6HR MIN TEMP:  77; 6HR MAX TEMP:  83; 6HR PCP: TRACE;

*BEEVILLE      MOSUNNY   77  67  70 SE18G25   29.98S
6HR MIN TEMP:  77; 6HR MAX TEMP:  84;

ROCKPORT       MOSUNNY   78  68  71 E20       29.99F
6HR MIN TEMP:  77; 6HR MAX TEMP:  84;

*PORT ARANSAS  SUNNY     77  69  77 E15       29.99S
*PORT LAVACA   SUNNY     77  66  69 SE20      30.02S
*INGLESIDE     PTSUNNY   79  69  70 E18G29    29.99S
CORPUS CHRISTI PTSUNNY   78  67  68 SE22      29.98S
6HR MIN TEMP:  78; 6HR MAX TEMP:  83;

CORPUS NAS     PTSUNNY   76  70  82 E21       29.98S
6HR MIN TEMP:  76; 6HR MAX TEMP:  82;

*ROBSTOWN      PTSUNNY   80  67  63 SE21      29.98S
ALICE          MOSUNNY   80  65  59 SE18G25   29.96R
6HR MIN TEMP:  80; 6HR MAX TEMP:  87;

KINGSVILLE NAS PTSUNNY   79  70  74 SE15G22   29.97S
6HR MIN TEMP:  78; 6HR MAX TEMP:  84;

COTULLA        MOSUNNY   81  61  50 SE22G29   29.92F
6HR MIN TEMP:  73; 6HR MAX TEMP:  85; 6HR PCP:  0.09;

*FAITH RANCH   PTSUNNY   79  64  61 SE17      29.90F
LAREDO         CLOUDY    80  64  58 SE17      29.93F
6HR MIN TEMP:  77; 6HR MAX TEMP:  81; 6HR PCP: TRACE;

$$

TXZ248>255-050100-
DEEP SOUTH TEXAS

CITY           SKY/WX    TMP DP  RH WIND       PRES   REMARKS
BROWNSVILLE    PTSUNNY   79  69  71 SE16G22   29.95S
6HR MIN TEMP:  79; 6HR MAX TEMP:  84;

PORT ISABEL    PTSUNNY   78  68  71 E17       29.95S
6HR MIN TEMP:  78; 6HR MAX TEMP:  83;

*SOUTH PADRE     N/A    N/A N/A N/A MISG        N/A
HARLINGEN      PTSUNNY   80  69  69 SE18      29.93F
6HR MIN TEMP:  80; 6HR MAX TEMP:  86;

*HEBBRONVILLE    N/A     80  63  56 E15G21    29.95S
MCALLEN        PTSUNNY   82  67  60 SE17G23   29.93S
6HR MIN TEMP:  82; 6HR MAX TEMP:  86;

*WESLACO       CLOUDY    82  64  56 E13G20    29.93S
FALFURRIAS     MOSUNNY   79  65  62 E14G20    29.95S
6HR MIN TEMP:  78; 6HR MAX TEMP:  85;

EDINBURG       CLOUDY    82  66  58 E14G21    29.93S
6HR MIN TEMP:  82; 6HR MAX TEMP:  86;

*ZAPATA        CLOUDY    79  65  62 SE9       29.91S
$$

TXZ213>215-236>238-242>244-246-247-251-254-255-050100-
CMAN STATIONS

STATION/POSITION TIME  TEMP    WIND        PRES    WAVE
                       AIR SEA DIR/SP/G            HT/PER
                 (UTC) (F)     (DEG/KT/KT) (MB)    (FT/S)
$$

GMZ080-GMZ150>470-050100-
OFFSHORE BUOY REPORTS

STATION/POSITION TIME  TEMP    WIND        PRES    WAVE
                       AIR SEA DIR/SP/G            HT/PER



USA.gov is the U.S. government's official web portal to all federal, state and local government web resources and services.